Theta_e
313 314 319 322 319 316 316 317 314 316 316 316 317 317 317 317 316 319 320 320 321 322 330 332 333 334 334 332 332 332 330 331 332 331 330 329 327 325 326 332 333 331 326 321 320 319 319 321 321
314 318 322 319 316 317 318 313 316 315 316 317 317 316 316 317 319 319 320 320 320 322 328 330 332 333 333 333 332 330 329 330 332 331 330 329 328 325 326 330 328 326 324 321 319 319 318 319 319
318 319 319 312 311 316 317 313 314 316 316 316 316 317 316 317 318 318 317 317 318 321 324 330 331 332 333 333 333 333 331 332 330 330 329 328 326 325 325 325 327 325 321 321 319 318 317 317 319
319 320 315 312 314 313 313 313 313 316 317 317 316 316 316 316 318 316 316 316 317 319 322 325 329 330 332 331 331 332 331 332 328 328 327 326 325 325 323 326 329 324 314 315 316 317 316 316 315
317 317 313 314 314 313 311 314 315 314 315 316 316 315 315 317 318 316 316 316 316 318 323 325 327 329 330 329 330 330 331 332 329 328 328 325 327 325 322 322 321 316 311 312 311 313 314 313 313
317 314 313 314 313 312 313 314 314 313 313 315 315 314 315 317 316 316 316 316 316 316 319 324 326 328 330 330 330 330 331 331 329 329 329 329 331 327 327 326 324 322 315 311 310 311 311 311 310
313 310 312 311 313 313 314 314 313 313 313 315 315 313 315 314 315 316 317 317 317 317 318 319 321 325 327 332 333 333 333 330 330 330 330 329 331 331 330 328 327 326 324 318 311 309 309 308 306
316 310 311 312 313 314 313 314 314 314 314 315 314 312 312 313 314 316 316 317 316 316 317 318 320 321 323 326 330 333 332 331 330 330 330 330 330 331 330 329 329 329 328 326 321 312 307 306 304
314 308 310 312 311 313 314 314 314 314 314 314 313 313 312 313 313 314 316 316 316 316 316 317 318 320 322 324 326 328 331 330 330 331 331 331 330 330 331 331 329 331 330 328 327 324 314 306 304
310 307 309 310 310 313 314 314 314 314 313 313 313 311 311 313 314 314 314 314 314 314 314 315 316 317 318 320 322 325 329 330 331 332 331 331 330 329 329 328 328 329 328 325 326 325 324 312 304
311 309 309 313 314 315 314 314 314 314 311 313 312 312 313 313 313 313 313 313 313 313 313 313 314 316 317 318 321 323 325 328 334 332 331 329 329 329 328 328 328 326 326 326 325 325 322 323 312
314 314 313 315 315 315 314 314 314 313 312 312 312 312 312 313 313 312 312 312 312 313 313 313 314 314 315 317 319 323 326 335 331 332 329 326 327 329 328 327 327 326 325 325 324 323 324 321 320
315 313 314 315 315 314 314 313 313 311 310 310 310 311 311 311 312 311 311 311 312 312 313 313 313 314 314 315 317 320 324 328 332 330 329 329 326 326 327 326 326 323 324 322 324 324 323 322 320
312 312 312 313 312 312 312 311 312 308 308 309 309 309 309 309 310 310 310 310 310 311 311 312 313 313 314 314 318 323 331 327 326 328 328 327 329 329 327 327 325 325 325 324 323 323 322 321 320
312 312 309 310 310 311 311 310 309 309 308 310 310 310 309 309 308 309 309 309 309 309 310 311 311 313 314 314 318 324 327 327 327 329 326 326 325 326 326 326 328 328 327 327 326 324 322 321 321
310 308 312 311 311 311 311 314 308 309 310 309 309 308 308 308 307 306 307 307 308 309 310 312 313 314 315 316 318 322 326 330 326 325 325 324 324 324 328 327 326 327 326 326 324 324 324 322 320
306 312 309 310 310 310 310 313 308 308 309 307 306 305 305 305 305 305 306 307 307 309 311 313 316 318 319 321 323 325 327 326 324 323 322 322 322 323 322 322 322 323 323 323 324 324 323 322 321
311 310 308 309 311 310 310 310 306 307 307 304 304 303 303 304 304 305 306 307 307 308 311 315 316 318 320 321 322 323 323 322 321 320 320 318 319 319 319 319 320 320 320 321 322 322 321 320 319
308 309 310 309 309 311 310 309 309 305 304 302 301 301 301 302 302 303 304 305 306 308 309 310 312 314 315 316 318 319 318 318 318 317 316 316 316 316 316 316 316 316 316 317 316 316 316 316 316
307 309 308 307 308 309 309 309 307 304 303 303 302 301 301 301 302 302 303 304 305 305 305 306 306 307 307 307 307 308 310 311 312 311 310 308 307 307 307 309 311 312 312 313 313 313 312 312 311
307 308 307 310 309 308 309 309 307 302 301 301 300 300 300 301 302 302 302 302 302 303 303 303 303 303 303 303 304 304 304 304 304 304 303 303 303 303 303 304 304 304 305 306 306 306 308 308 308
308 306 307 309 310 313 308 313 308 305 302 300 299 299 299 300 300 300 300 301 302 302 302 302 302 302 301 301 302 302 302 302 301 301 300 299 299 299 299 299 299 300 300 300 300 299 300 301 301
310 306 307 308 309 309 308 310 308 304 305 302 298 298 298 299 299 299 299 300 300 300 300 300 300 300 300 300 299 299 299 297 295 295 294 294 293 293 293 292 292 292 291 291 291 291 291 293 295
305 307 306 305 306 310 310 311 310 307 307 302 299 299 299 298 298 298 299 299 299 299 299 299 299 299 298 298 298 298 298 297 296 295 295 294 292 292 291 291 290 290 290 289 289 288 288 288 288
306 309 312 313 312 314 306 308 310 307 304 303 301 299 298 299 298 299 299 299 299 298 298 298 298 298 298 297 297 297 297 296 296 295 293 292 291 291 290 289 289 289 288 288 288 287 287 287 287
306 310 313 314 313 312 306 311 312 302 301 302 302 301 299 298 298 299 299 299 299 298 296 297 297 297 296 295 295 295 294 294 293 292 291 290 290 289 288 288 287 287 287 286 286 286 286 286 286
308 310 308 307 295 307 310 309 307 300 300 299 300 300 299 299 299 298 299 300 299 298 297 296 295 295 294 293 292 292 292 291 290 290 289 289 289 288 288 288 287 287 286 286 286 286 286 286 286
308 307 311 308 311 311 311 311 312 305 303 298 297 298 299 299 298 298 299 300 299 298 297 296 294 292 292 291 290 290 290 289 289 289 288 288 287 287 286 286 286 285 285 285 286 286 286 286 286
310 310 308 309 309 312 309 310 304 305 302 300 298 300 301 300 300 300 300 299 299 298 297 294 293 292 291 290 289 289 289 289 289 288 288 288 287 287 286 286 285 285 285 285 285 285 285 285 285
307 308 309 313 310 305 307 313 302 302 301 302 301 301 302 302 302 301 301 300 299 299 297 295 294 292 290 289 289 289 289 289 288 288 288 288 287 287 286 285 285 284 285 285 285 285 284 284 284
Wind_Speed
2 1 1 2 4 4 1 0 1 2 1 1 1 2 3 3 3 2 5 2 3 6 15 15 15 14 13 12 11 10 8 4 1 1 1 1 1 2 3 2 2 5 6 5 5 4 4 4 5
2 1 2 3 4 3 2 3 2 1 0 1 2 2 3 1 4 3 5 3 5 6 12 14 14 13 12 11 10 9 7 5 3 2 2 2 2 1 1 0 4 7 7 4 4 4 3 3 3
3 3 2 4 3 3 3 3 1 0 2 1 2 3 2 3 5 4 6 6 5 5 9 13 13 13 13 11 10 9 8 6 4 4 4 3 3 2 3 4 5 6 5 5 4 3 3 3 3
2 2 6 4 3 2 0 2 2 1 1 4 3 3 3 4 3 4 8 8 6 4 7 11 14 13 13 12 11 10 9 8 6 5 5 5 5 4 5 3 2 6 7 6 4 4 4 4 4
2 3 4 4 0 1 3 2 2 1 1 3 3 1 3 6 5 5 5 7 7 3 4 6 12 15 14 13 12 12 11 10 8 7 7 7 5 5 6 6 8 10 10 8 7 4 4 4 4
3 3 4 3 2 2 2 1 2 2 1 2 2 2 5 7 4 3 2 4 5 5 2 4 7 12 15 15 14 13 13 12 10 9 8 7 6 6 6 6 8 9 11 10 9 6 5 5 5
6 4 4 4 3 0 2 1 3 3 1 3 2 2 5 5 5 1 1 1 1 3 2 1 4 7 12 15 14 14 13 13 11 10 9 8 8 7 7 7 8 8 9 9 10 9 8 8 7
4 6 4 2 3 3 1 2 2 3 0 3 3 2 1 7 2 1 3 4 5 3 4 5 6 7 9 12 15 16 15 14 13 12 10 9 10 10 10 10 9 9 9 9 9 8 8 8 8
3 4 3 5 6 3 1 2 1 2 1 2 4 2 5 9 7 5 6 6 7 7 8 8 9 9 9 11 13 14 15 15 14 12 12 11 12 15 12 11 11 10 11 11 11 9 8 8 8
4 3 6 5 4 3 2 1 2 1 4 1 3 3 2 4 6 6 6 6 8 10 12 12 12 12 11 10 11 12 13 13 12 14 14 13 14 14 12 11 12 12 12 14 13 11 9 9 8
2 4 4 3 4 3 3 1 0 2 2 2 3 2 3 3 2 0 1 3 4 3 4 9 12 13 13 12 10 10 10 10 13 13 12 14 15 14 13 13 12 13 13 14 15 17 13 11 10
2 1 2 0 3 3 3 2 3 1 4 2 3 0 3 3 3 3 3 3 4 5 6 7 8 11 13 13 12 9 8 9 10 12 12 11 14 16 14 14 14 13 14 15 15 17 18 12 12
2 0 2 4 7 7 5 6 4 1 6 7 6 3 1 4 5 7 7 6 5 5 6 6 6 7 11 15 15 11 8 7 8 9 12 14 11 14 15 14 16 12 13 16 16 17 18 17 15
1 2 7 7 5 6 5 3 4 5 12 9 4 4 5 5 5 5 5 5 4 4 4 5 5 5 6 11 15 12 9 8 7 7 9 11 12 13 13 15 15 15 16 14 15 16 16 16 17
2 2 8 3 2 4 6 2 4 14 11 6 3 3 4 6 6 5 5 5 5 6 6 5 4 3 3 10 16 16 13 10 7 3 2 5 9 9 9 10 12 12 12 15 16 17 18 18 17
2 4 2 2 1 0 5 5 3 13 10 5 3 2 1 3 6 7 6 6 7 7 8 10 8 5 5 7 13 14 12 9 5 4 7 8 8 9 8 9 11 11 12 13 14 16 17 16 17
5 3 4 6 2 2 3 5 6 11 7 6 5 4 3 4 5 6 7 7 8 8 9 11 12 12 12 12 12 12 11 11 7 5 5 6 8 7 11 11 11 13 14 17 17 18 18 19 21
6 4 5 5 3 2 2 8 6 4 6 7 7 6 6 7 8 9 10 10 11 11 11 14 15 16 15 14 13 13 13 12 8 5 3 2 4 6 8 10 11 12 13 14 12 13 13 13 14
5 4 6 2 3 3 6 6 7 4 6 8 8 9 9 11 14 15 16 17 17 17 17 15 14 16 15 13 13 13 13 13 9 6 2 1 3 6 8 9 9 10 12 13 12 13 14 17 19
4 4 6 5 3 2 5 9 7 1 4 8 13 13 14 16 17 19 21 23 25 26 26 26 25 22 21 20 20 19 17 15 12 9 7 6 5 4 3 4 6 7 8 10 12 13 13 14 17
5 7 5 6 1 2 2 7 4 1 2 7 11 13 15 18 20 21 23 25 26 27 25 25 25 23 22 21 20 19 18 17 14 13 11 11 10 9 8 7 5 6 7 8 10 11 12 13 14
6 8 7 5 4 4 1 4 4 3 3 6 14 17 18 19 20 21 22 22 23 24 23 20 19 19 19 17 14 13 13 12 14 13 12 11 11 11 11 12 11 11 11 10 12 13 12 12 13
5 6 7 4 4 2 3 0 7 3 6 8 14 17 18 18 18 19 19 18 19 20 19 17 16 15 15 12 10 11 14 17 15 13 11 12 12 12 12 12 13 13 13 14 13 13 15 15 15
9 6 6 4 3 2 8 8 4 5 6 4 19 27 25 23 22 21 19 17 16 15 15 13 11 12 11 10 12 12 14 13 10 9 8 9 9 10 11 12 13 14 14 15 16 17 16 16 15
1 6 1 2 1 5 3 3 7 3 2 2 19 27 27 26 26 25 22 19 17 12 10 9 8 8 7 5 6 6 6 5 4 4 5 5 7 8 11 12 13 14 15 16 17 18 19 20 21
8 6 5 7 4 3 2 6 6 2 2 4 13 30 30 29 26 24 20 17 15 12 10 8 6 4 4 4 5 5 5 4 3 4 5 6 8 10 11 12 14 15 16 18 19 20 22 23 24
6 6 4 6 2 3 4 4 3 1 1 3 17 29 34 32 30 27 22 18 15 12 10 7 5 5 6 6 5 4 4 3 3 4 5 7 8 10 12 13 15 17 18 20 22 24 27 28 29
5 7 3 2 2 4 3 4 5 6 8 6 12 27 34 33 31 28 25 20 16 14 12 9 9 8 8 7 6 3 1 1 2 4 6 8 10 10 11 13 14 16 18 21 24 26 28 31 33
4 3 2 4 4 5 2 5 6 9 9 14 20 33 38 37 34 31 27 23 19 17 15 13 12 12 11 10 8 5 3 1 3 6 9 11 14 15 16 18 19 21 23 25 28 30 32 34 36
2 7 7 4 5 2 1 6 1 4 10 21 25 32 35 34 33 30 28 26 25 22 20 16 15 16 15 13 11 7 4 3 6 9 12 14 16 18 20 21 22 24 26 29 32 34 36 38 39
Wind_Direction
320 301 326 108 61 65 25 130 271 18 29 18 55 102 136 115 140 131 6 113 58 170 182 180 180 179 179 178 181 184 187 188 190 343 1 20 33 40 66 97 349 354 353 16 30 36 40 33 34
42 55 91 88 81 68 287 269 150 197 5 98 112 82 82 62 54 65 39 64 61 142 183 186 185 188 188 188 188 196 209 214 219 270 293 306 314 332 85 329 326 322 327 360 11 13 19 17 17
76 54 72 87 105 147 173 230 231 88 55 108 113 66 77 32 45 67 45 63 62 120 167 193 194 196 198 201 204 209 209 211 242 275 288 288 290 300 316 328 322 317 320 329 344 342 339 334 337
56 81 64 78 99 205 50 309 218 48 69 54 67 64 60 29 56 64 60 50 48 108 146 183 200 204 208 212 212 213 216 227 250 268 280 285 290 294 310 324 309 348 358 356 336 317 317 310 305
70 72 60 85 45 246 264 275 148 92 89 44 62 1 70 41 71 67 56 47 46 67 153 180 201 208 212 219 220 219 225 237 256 271 284 289 289 298 315 317 322 345 354 4 353 328 316 310 310
80 73 68 150 218 293 272 300 156 109 57 84 66 47 72 64 69 58 45 41 52 59 112 189 201 213 220 225 225 227 232 243 257 267 271 266 294 310 316 318 325 331 348 357 355 349 334 327 323
102 79 154 146 178 151 209 314 150 117 70 61 47 88 137 39 30 33 204 209 97 86 107 195 227 223 226 231 233 232 233 242 253 258 259 256 270 292 298 308 315 322 335 345 356 352 342 334 330
94 94 111 198 175 184 236 147 112 76 180 0 11 43 108 328 354 225 217 225 215 206 202 208 222 232 234 233 230 232 239 248 250 252 255 261 264 273 279 289 293 302 313 323 340 348 343 334 330
92 67 145 194 155 178 59 112 120 360 118 345 62 44 301 301 291 259 227 228 234 247 245 236 230 225 233 238 237 235 232 240 245 249 250 250 258 263 269 281 285 296 305 308 315 330 336 323 320
80 101 202 188 187 149 100 90 329 140 354 103 100 49 352 270 253 251 249 249 253 252 252 248 241 234 231 231 237 237 234 235 238 241 240 237 245 256 269 278 281 291 297 307 309 306 319 319 308
118 163 186 186 192 161 144 264 291 163 114 102 330 51 48 54 72 58 319 314 312 313 289 258 250 244 237 229 228 236 236 231 232 244 248 254 252 258 267 276 286 288 290 300 311 317 309 313 308
101 194 191 226 179 173 175 256 267 224 160 219 251 112 25 6 358 355 333 317 308 297 291 289 278 250 244 236 220 224 235 233 238 249 248 267 265 264 272 275 281 292 296 295 303 311 317 304 300
116 290 242 257 265 264 239 232 238 186 206 178 157 155 47 22 360 348 342 331 315 307 300 300 288 264 241 231 225 203 206 214 228 248 255 253 258 275 273 280 279 291 293 294 294 299 304 310 300
166 266 280 281 245 254 201 183 192 133 153 152 154 64 45 30 25 356 322 326 325 326 304 293 290 285 248 220 214 203 199 205 204 205 233 249 253 251 262 274 284 288 288 295 294 296 302 303 299
137 317 326 284 275 221 175 130 210 158 172 143 103 46 5 10 18 14 12 17 25 23 16 352 322 289 233 186 188 190 192 197 194 190 236 240 237 239 250 255 262 265 280 283 298 298 294 294 300
67 52 351 267 187 270 161 252 188 169 175 150 163 155 78 29 24 35 41 38 40 42 43 46 50 70 109 155 175 183 181 181 180 236 257 264 270 269 262 250 258 271 277 273 280 280 278 287 287
7 233 223 313 235 152 177 250 164 176 214 179 164 142 116 73 60 64 72 78 81 78 79 79 81 85 98 115 135 146 142 133 152 206 255 275 282 289 282 293 295 292 288 283 283 280 286 285 281
195 212 244 234 217 188 191 261 173 190 197 157 148 133 113 104 90 89 92 91 96 102 107 99 94 95 95 102 114 125 128 128 139 151 161 249 282 277 282 286 293 295 299 295 301 295 297 288 291
138 170 216 226 257 174 226 254 262 153 144 158 155 137 121 109 102 101 102 100 100 102 106 106 102 96 96 101 109 114 113 109 117 102 77 318 300 297 301 296 298 292 289 295 306 308 307 304 303
139 166 242 292 222 135 275 260 261 135 175 191 172 158 146 126 117 110 107 107 104 100 98 98 95 94 93 90 89 90 94 97 91 83 77 70 62 47 15 334 311 306 304 295 300 305 318 322 323
198 198 190 215 37 214 354 278 230 58 105 152 166 160 150 141 136 129 123 115 107 101 95 92 89 86 83 82 83 85 87 91 94 86 79 67 57 49 41 34 24 3 351 332 329 317 309 308 310
206 194 176 174 126 234 139 275 289 186 167 179 173 170 164 156 147 138 131 125 118 109 105 96 88 86 86 88 91 89 86 74 79 70 64 60 53 47 46 40 36 34 28 17 16 7 358 343 333
229 138 164 141 158 113 230 288 263 154 228 196 191 182 175 165 155 145 137 126 116 111 106 94 86 87 94 96 90 81 74 76 77 69 56 45 39 34 32 29 28 23 23 21 16 11 10 10 2
149 81 56 56 108 255 215 183 257 205 212 158 184 187 184 174 166 157 149 139 130 125 113 100 87 79 79 73 64 54 54 55 55 49 34 29 23 22 21 19 14 14 11 10 8 8 4 4 359
125 117 50 330 277 228 49 144 247 236 181 183 190 188 184 180 175 169 164 156 147 138 127 115 97 76 69 69 79 81 75 81 73 63 46 37 24 14 10 9 6 5 5 1 358 354 351 349 345
190 169 169 207 199 232 47 220 243 153 174 224 196 189 185 185 182 179 173 167 160 160 157 140 131 127 124 144 145 129 120 106 79 63 38 18 11 8 7 4 360 355 353 350 348 346 342 339 335
186 203 166 108 42 65 218 275 270 146 196 161 179 187 189 188 187 188 184 181 178 175 178 179 190 188 172 171 163 149 130 106 59 32 17 1 354 349 345 341 339 338 338 338 337 336 333 332 330
179 156 99 4 210 260 264 257 228 205 202 180 185 191 194 193 193 192 195 195 192 196 199 207 212 205 198 197 189 180 161 100 24 12 358 354 347 340 334 332 334 333 333 332 331 330 330 328 327
150 181 78 135 160 185 229 245 212 192 180 193 201 199 197 195 195 198 201 203 209 212 215 218 219 219 214 212 208 210 221 294 351 350 344 339 335 333 330 329 328 328 328 328 328 329 329 328 325
224 189 163 169 213 256 173 244 114 233 201 194 201 199 199 200 200 203 207 211 216 222 224 223 224 225 220 219 219 224 243 288 328 332 331 329 328 328 327 325 325 325 326 326 327 327 327 327 325